Location: Jalan Sepang
(2.8072°N, 101.8021°E)
Time: 04:32:17
(UTC+00:00)

USA 267 - Pass Details

Date: 15 May 2026
Orbit: 1101 x 1107 km, 123.0° (Epoch: 10 January)

Event Time Altitude Azimuth Distance (km) Brightness Sun altitude
Rises 20:12:47 0° 46° (NE) 3,913 7.0 -39.9°
Reaches altitude 10° 20:15:19 10° 50° (NE) 2,956 6.2 -39.3°
Enters shadow 20:20:23 48° 88° (E) 1,413 4.0 -38.2°
